[[{"header":{"parameterUnit":"m.s-1","parameterCategory":1,"la1":30.2991,"la2":30.254,"lo1":-89.0895,"lo2":-89.0444,"dy":0.0017,"dx":0.0017,"nx":28,"ny":28,"refTime":"2024-05-13T21:00:00:Z","depth":0,"parameterNumber":2,"parameterNumberName":"U-component_of_WINDS"},"data":[0,0,0,0,0,0,0,0,0,0,0,0,0,0,0,0,0,0,0,0,0,0,0,0,0,0,0,0,0,0,0,0,0,0,0,0,0,0,0,0,0,0,0,0,0,0,0,0,0,0,0,0,0,0,0,0,0,0,2.6286,2.6287,0,2.6371,2.6372,2.6373,2.639,2.6389,2.6389,2.6388,2.6481,2.6484,2.6487,0,0,0,0,0,0,0,0,0,0,0,0,0,2.6147,2.6149,2.6286,2.6287,2.6288,2.637,2.6372,2.6373,2.639,2.6389,2.6389,2.6388,2.648,2.6484,2.6487,0,0,0,0,0,0,0,0,0,0,0,0,0,2.6217,2.615,2.6286,2.6306,2.6309,2.637,2.6372,2.6373,2.639,2.6389,2.6388,2.6387,2.6479,2.6483,2.6488,2.6536,0,0,2.6502,2.6504,0,0,0,0,0,0,0,0,2.6213,2.6222,2.6302,2.6305,2.6308,2.6369,2.6357,2.6428,2.6391,2.636,2.6388,2.6387,2.6445,2.6452,2.647,2.654,2.6544,2.6502,2.6505,2.6507,2.6508,0,0,0,0,0,0,0,2.6208,2.6219,2.632,2.6303,2.6307,2.6314,2.6323,2.637,2.6407,2.6362,2.6364,2.6373,2.6446,2.6466,2.6473,2.6546,2.6502,2.6506,2.6509,2.6511,2.6664,2.6665,0,0,0,0,0,0,2.6199,2.6214,2.6317,2.6322,2.6257,2.6317,2.6327,2.635,2.6406,2.6414,2.6374,2.6374,2.6458,2.6467,2.6476,2.6539,2.6507,2.6511,2.6514,2.6663,2.6664,2.6666,0,0,0,0,0,0,2.6196,2.6208,2.6313,2.6269,2.6283,2.6321,2.6347,2.6352,2.6372,2.6415,2.6422,2.6387,2.6458,2.6469,2.6521,2.6542,2.6513,2.6518,2.6661,2.6663,2.6665,2.6663,0,0,0,0,0,0,2.6191,2.6206,2.6223,2.6269,2.6285,2.6355,2.6348,2.6355,2.6379,2.638,2.6429,2.6436,2.6458,2.6514,2.6526,2.6548,2.6521,2.666,2.6662,2.6665,2.6661,2.6665,2.6667,0,0,0,0,0,2.6186,2.6219,2.6224,2.6236,2.6306,2.6356,2.6365,2.6388,2.6381,2.6399,2.6428,2.6435,2.6538,2.652,2.6533,2.6557,2.6659,2.6662,2.6664,2.666,2.6664,2.6667,0,0,0,0,0,0,2.6176,2.6226,2.6231,2.6279,2.6313,2.6359,2.6383,2.6391,2.6429,2.6428,2.6457,2.6468,2.6519,2.6543,2.6522,2.6608,2.6598,2.6604,2.6591,2.6595,2.6597,2.6591,2.6525,0,0,0,0,0,2.6179,2.6213,2.6256,2.6295,2.6311,2.6344,2.6366,2.6381,2.6418,2.6433,2.6465,2.6503,2.6544,2.657,2.6611,2.6665,2.6678,2.6688,2.6691,2.6693,2.6699,2.6733,2.6739,2.6675,2.6675,2.6675,0,0,2.6187,2.6218,2.6238,2.6293,2.6321,2.6359,2.6356,2.6395,2.6424,2.644,2.6491,2.6516,2.656,2.6614,2.664,2.6636,2.6719,2.6697,2.6699,2.6703,2.6736,2.6742,2.6748,2.6677,2.6677,2.6677,0,0,2.6219,2.6245,2.6282,2.631,2.6352,2.6374,2.6383,2.6428,2.6445,2.6496,2.651,2.6546,2.6616,2.6648,2.6673,2.6721,2.673,2.6733,2.6749,2.6782,2.6788,2.6792,2.6812,2.6818,2.6738,2.6738,2.6738,0,2.6223,2.6278,2.63,2.6339,2.6365,2.6379,2.6419,2.6446,2.65,2.6518,2.6513,2.6602,2.6633,2.6696,2.6708,2.6727,2.6741,2.6728,2.6785,2.6789,2.6794,2.6814,2.6821,2.6738,2.6738,2.6738,2.6738,0,2.6283,2.6321,2.6346,2.6396,2.6425,2.6464,2.6494,2.6521,2.6534,2.6558,2.6612,2.665,2.6699,2.6715,2.6728,2.6782,2.6778,2.6778,2.6769,2.68,2.6819,2.6826,2.6739,2.6739,2.6739,2.6738,0,0,2.631,2.6374,2.6383,2.6407,2.6456,2.6488,2.6529,2.6576,2.66,2.6637,2.6675,2.6734,2.6736,2.6764,2.6782,2.681,2.685,2.6808,2.6809,2.6816,2.6915,2.6916,2.6924,2.6856,2.6858,2.6859,2.6912,0,2.635,2.6422,2.6444,2.6506,2.6543,2.656,2.6596,2.6632,2.6656,2.6694,2.6721,2.6764,2.6761,2.6779,2.6808,2.6839,2.6871,2.6835,2.6895,2.6896,2.6884,2.6933,2.6934,2.6982,2.692,2.6921,2.6922,0,2.6406,2.6444,2.6509,2.6556,2.6573,2.6605,2.6651,2.6686,2.6728,2.6744,2.6778,2.6793,2.6841,2.6828,2.6896,2.6871,2.6897,2.6917,2.6919,2.6927,2.6912,2.6944,2.6998,2.7006,2.6933,2.6932,2.6931,0,2.6423,2.649,2.6538,2.6559,2.6614,2.6637,2.6661,2.6703,2.673,2.6772,2.6791,2.6838,2.6865,2.6902,2.6932,2.6919,2.6998,2.6987,2.7015,2.7015,2.7032,2.7031,2.7092,2.7046,2.7046,2.7045,2.7045,0,2.6466,2.6506,2.6547,2.6576,2.6623,2.665,2.6696,2.6722,2.6759,2.6796,2.6814,2.6849,2.6885,2.6926,2.695,2.7004,2.7015,2.7032,2.7038,2.7031,2.7029,2.705,2.7048,2.7047,2.7047,2.7047,2.7046,0,2.6492,2.6521,2.6575,2.6623,2.6637,2.6669,2.6712,2.6743,2.6769,2.6816,2.6829,2.687,2.692,2.6952,2.7016,2.7032,2.7092,2.7097,2.7078,2.7081,2.7108,2.7106,2.7186,2.7199,2.7142,2.7142,2.7143,0,2.6518,2.6549,2.6601,2.6627,2.6652,2.6693,2.6721,2.675,2.678,2.6832,2.6858,2.6909,2.6951,2.703,2.7067,2.7117,2.7124,2.7149,2.7132,2.7125,2.7128,2.7126,2.7131,2.7152,2.7153,2.7153,2.7153,0,2.6563,2.6576,2.6616,2.6661,2.6695,2.6733,2.6771,2.6791,2.6827,2.6861,2.6911,2.6943,2.7009,2.706,2.7114,2.7143,2.7156,2.7158,2.7168,2.7162,2.7151,2.716,2.7087,2.7157,2.7156,2.7156,2.7156,2.7156,2.6592,2.6621,2.6663,2.6708,2.6739,2.6775,2.6808,2.6837,2.6879,2.6934,2.6949,2.7002,2.7048,2.7121,2.7151,2.7196,2.7193,2.7206,2.721,2.7213,2.7215,2.7142,2.7205,2.7205,2.7205,2.7205,2.7205,0,2.6639,2.6667,2.6708,2.676,2.6797,2.6803,2.6847,2.6877,2.6924,2.6964,2.7005,2.7065,2.7116,2.7157,2.7211,2.7239,2.7246,2.7252,2.7251,2.7258,2.7213,2.72,2.7245,2.7245,2.7245,2.7245,2.7245,2.7245,2.6668,2.6719,2.6738,2.6807,2.6835,2.6886,2.6911,2.6946,2.6978,2.7044,2.7085,2.7112,2.7154,2.7211,2.7259,2.727,2.729,2.7295,2.7308,2.7265,2.7261,2.7257,2.7245,2.7299,2.7299,2.735,2.735,2.7351]},{"header":{"parameterUnit":"m.s-1","parameterCategory":1,"la1":30.2991,"la2":30.254,"lo1":-89.0895,"lo2":-89.0444,"dy":0.0017,"dx":0.0017,"nx":28,"ny":28,"refTime":"2024-05-13T21:00:00:Z","depth":0,"parameterNumber":3,"parameterNumberName":"V-component_of_WINDS"},"data":[0,0,0,0,0,0,0,0,0,0,0,0,0,0,0,0,0,0,0,0,0,0,0,0,0,0,0,0,0,0,0,0,0,0,0,0,0,0,0,0,0,0,0,0,0,0,0,0,0,0,0,0,0,0,0,0,0,0,0.9771,0.9773,0,0.9961,0.9963,0.9965,0.9933,0.993,0.9927,0.9924,1.0119,1.0127,1.0135,0,0,0,0,0,0,0,0,0,0,0,0,0,0.9377,0.9385,0.9771,0.9773,0.9776,0.9961,0.9963,0.9966,0.9934,0.993,0.9926,0.9922,1.0116,1.0126,1.0136,0,0,0,0,0,0,0,0,0,0,0,0,0,0.9556,0.9387,0.977,0.9782,0.9785,0.996,0.9963,0.9967,0.9935,0.993,0.9925,0.992,1.0113,1.0125,1.0137,1.0313,0,0,1.0175,1.0181,0,0,0,0,0,0,0,0,0.9546,0.957,0.9778,0.9781,0.9785,0.9918,0.9896,1.0083,0.9936,0.9878,0.9924,0.9918,1.0056,1.0073,1.012,1.0323,1.0331,1.0177,1.0184,1.0189,1.0193,0,0,0,0,0,0,0,0.9533,0.9562,0.9846,0.9781,0.9785,0.9777,0.9797,0.9931,0.9993,0.9883,0.9881,0.9904,1.0057,1.0108,1.0124,1.0334,1.0176,1.0187,1.0195,1.02,1.0684,1.0689,0,0,0,0,0,0,0.9518,0.9552,0.984,0.9852,0.9651,0.9788,0.981,0.9881,0.9991,1.0003,0.9908,0.9901,1.0089,1.011,1.0131,1.034,1.0189,1.0201,1.0208,1.0679,1.0685,1.0691,0,0,0,0,0,0,0.9509,0.9544,0.9832,0.9701,0.9737,0.98,0.9879,0.9887,0.9937,1.001,1.0021,0.9948,1.0086,1.0113,1.0267,1.0347,1.0207,1.0218,1.0673,1.0681,1.0688,1.0763,0,0,0,0,0,0,0.9498,0.9541,0.961,0.9703,0.9745,0.9967,0.9884,0.9894,0.9959,0.9953,1.0051,1.0062,1.0084,1.0248,1.0279,1.0361,1.0228,1.0666,1.0676,1.0686,1.0753,1.0772,1.0789,0,0,0,0,0,0.9484,0.9625,0.9613,0.9648,0.9832,0.9971,0.9995,1.0017,0.9966,1.0034,1.008,1.0059,1.0333,1.0265,1.0299,1.0386,1.0661,1.0673,1.0685,1.0746,1.0769,1.0788,0,0,0,0,0,0,0.9541,0.9637,0.9626,0.9801,0.9878,0.9966,1.0053,1.0042,1.0136,1.0126,1.0149,1.0171,1.0326,1.0372,1.0293,1.0559,1.0489,1.0509,1.0524,1.0546,1.0563,1.0549,1.0238,0,0,0,0,0,0.9573,0.9679,0.9757,0.9904,0.9943,0.9991,1.0053,1.0063,1.0144,1.0176,1.0234,1.0313,1.0416,1.0484,1.0583,1.076,1.0778,1.0836,1.0853,1.0867,1.0884,1.0975,1.1,1.0731,1.0731,1.0731,0,0,0.9642,0.9707,0.9773,0.9916,0.9977,1.0084,1.0019,1.0137,1.0216,1.0195,1.0342,1.0386,1.0476,1.064,1.0715,1.0683,1.0962,1.0883,1.0894,1.0903,1.099,1.1016,1.1038,1.074,1.0738,1.0737,0,0,0.9821,0.9883,1.0009,1.007,1.0163,1.0193,1.0223,1.0312,1.034,1.0488,1.0473,1.0567,1.0746,1.0808,1.0864,1.1061,1.1044,1.1092,1.1184,1.1273,1.1294,1.1313,1.1379,1.1404,1.1109,1.1109,1.1109,0,0.9895,1.0056,1.0076,1.0194,1.0255,1.0239,1.0365,1.0424,1.0544,1.0586,1.0548,1.0768,1.0828,1.1004,1.1051,1.1098,1.113,1.1081,1.129,1.1309,1.1326,1.139,1.1416,1.1114,1.1113,1.1113,1.1112,0,1.014,1.0252,1.0343,1.0457,1.0529,1.0651,1.0687,1.0757,1.076,1.0793,1.0941,1.1011,1.1122,1.1165,1.117,1.1341,1.1317,1.1284,1.1215,1.1357,1.1417,1.1442,1.1121,1.1119,1.1118,1.1117,0,0,1.0363,1.0482,1.0515,1.0564,1.0663,1.0749,1.0868,1.0975,1.1033,1.1116,1.1214,1.1363,1.1331,1.1394,1.1405,1.1483,1.1629,1.144,1.1442,1.147,1.1817,1.1839,1.1868,1.1619,1.1624,1.1628,1.1808,0,1.0549,1.0759,1.0777,1.0966,1.1067,1.105,1.1153,1.1223,1.1257,1.1347,1.1384,1.1487,1.144,1.1477,1.1553,1.1596,1.1699,1.1583,1.1708,1.1712,1.1684,1.19,1.1925,1.2092,1.1832,1.1836,1.1839,0,1.0795,1.0881,1.1079,1.1158,1.1201,1.1294,1.1391,1.1478,1.1555,1.1574,1.1641,1.164,1.1759,1.1686,1.1849,1.1769,1.1821,1.1849,1.1856,1.1867,1.1783,1.1914,1.2147,1.2171,1.1877,1.1874,1.1871,0,1.0933,1.1099,1.1238,1.1281,1.1378,1.1442,1.1485,1.1558,1.162,1.1704,1.1743,1.1841,1.1894,1.1969,1.1993,1.1938,1.2153,1.2083,1.217,1.2169,1.2215,1.2212,1.2457,1.2253,1.2253,1.2252,1.2252,0,1.1137,1.1258,1.13,1.1385,1.1518,1.1537,1.1668,1.1708,1.1772,1.1862,1.1855,1.194,1.1967,1.2056,1.2076,1.2205,1.223,1.2246,1.225,1.2246,1.2243,1.2279,1.2267,1.2259,1.2257,1.2256,1.2255,0,1.1314,1.1348,1.1496,1.1574,1.1596,1.1691,1.1757,1.1837,1.1868,1.1982,1.201,1.2058,1.2161,1.2193,1.2319,1.2331,1.2481,1.2476,1.2455,1.2455,1.2538,1.2529,1.2814,1.285,1.2624,1.2626,1.2628,0,1.1442,1.1534,1.162,1.1679,1.1724,1.1822,1.1883,1.1904,1.1968,1.206,1.2129,1.2231,1.2314,1.2479,1.2524,1.2619,1.2614,1.2707,1.2628,1.2619,1.2611,1.2604,1.2611,1.2721,1.2724,1.2726,1.2727,0,1.1663,1.1674,1.1763,1.1857,1.193,1.2005,1.2077,1.2126,1.2157,1.2229,1.2334,1.2398,1.2523,1.2624,1.2719,1.2761,1.2748,1.2751,1.2776,1.2772,1.2754,1.2761,1.2492,1.2745,1.2743,1.2742,1.2741,1.274,1.1817,1.1896,1.1967,1.2066,1.2121,1.2188,1.2265,1.2304,1.2392,1.2495,1.2502,1.2615,1.2685,1.2811,1.2858,1.2945,1.2918,1.2954,1.2963,1.2971,1.2976,1.2742,1.2963,1.2962,1.2962,1.2961,1.2961,0,1.2035,1.2079,1.2169,1.2268,1.2345,1.2325,1.2403,1.2467,1.2566,1.2633,1.2713,1.2831,1.2927,1.2978,1.3072,1.3131,1.3127,1.3155,1.315,1.3159,1.2997,1.2965,1.3156,1.3156,1.3156,1.3156,1.3156,1.3156,1.2157,1.2288,1.2306,1.2463,1.2506,1.2616,1.2661,1.2721,1.2773,1.2905,1.2984,1.3016,1.3075,1.3173,1.3259,1.3271,1.3305,1.3335,1.3344,1.3191,1.3171,1.3152,1.3121,1.3343,1.3343,1.3498,1.3499,1.35]}]]